Year,Month,Day,Hour,Minute,Value (Times are PST for temperature in C)
2018,07,05,00,00,17.30
2018,07,05,00,01,17.30
2018,07,05,00,02,17.30
2018,07,05,00,03,17.40
2018,07,05,00,04,17.40
2018,07,05,00,05,17.40
2018,07,05,00,06,17.30
2018,07,05,00,07,17.30
2018,07,05,00,08,17.30
2018,07,05,00,09,17.30
2018,07,05,00,10,17.30
2018,07,05,00,11,17.30
2018,07,05,00,12,17.30
2018,07,05,00,13,17.30
2018,07,05,00,14,17.30
2018,07,05,00,15,17.30
2018,07,05,00,16,17.30
2018,07,05,00,17,17.30
2018,07,05,00,18,17.30
2018,07,05,00,19,17.30
2018,07,05,00,20,17.30
2018,07,05,00,21,17.30
2018,07,05,00,22,17.30
2018,07,05,00,23,17.30
2018,07,05,00,24,17.30
2018,07,05,00,25,17.30
2018,07,05,00,26,17.20
2018,07,05,00,27,17.20
2018,07,05,00,28,17.20
2018,07,05,00,29,17.20
2018,07,05,00,30,17.20
2018,07,05,00,31,17.20
2018,07,05,00,32,17.20
2018,07,05,00,33,17.20
2018,07,05,00,34,17.20
2018,07,05,00,35,17.20
2018,07,05,00,36,17.20
2018,07,05,00,37,17.20
2018,07,05,00,38,17.30
2018,07,05,00,39,17.30
2018,07,05,00,40,17.30
2018,07,05,00,41,17.30
2018,07,05,00,42,17.30
2018,07,05,00,43,17.30
2018,07,05,00,44,17.30
2018,07,05,00,45,17.30
2018,07,05,00,46,17.30
2018,07,05,00,47,17.30
2018,07,05,00,48,17.30
2018,07,05,00,49,17.30
2018,07,05,00,50,17.30
2018,07,05,00,51,17.30
2018,07,05,00,52,17.30
2018,07,05,00,53,17.30
2018,07,05,00,54,17.30
2018,07,05,00,55,17.30
2018,07,05,00,56,17.30
2018,07,05,00,57,17.30
2018,07,05,00,58,17.30
2018,07,05,00,59,17.30
2018,07,05,01,00,17.30
2018,07,05,01,01,17.30
2018,07,05,01,02,17.30
2018,07,05,01,03,17.30
2018,07,05,01,04,17.40
2018,07,05,01,05,17.40
2018,07,05,01,06,17.40
2018,07,05,01,07,17.40
2018,07,05,01,08,17.40
2018,07,05,01,09,17.40
2018,07,05,01,10,17.40
2018,07,05,01,11,17.30
2018,07,05,01,12,17.30
2018,07,05,01,13,17.30
2018,07,05,01,14,17.30
2018,07,05,01,15,17.30
2018,07,05,01,16,17.30
2018,07,05,01,17,17.30
2018,07,05,01,18,17.30
2018,07,05,01,19,17.30
2018,07,05,01,20,17.30
2018,07,05,01,21,17.30
2018,07,05,01,22,17.30
2018,07,05,01,23,17.20
2018,07,05,01,24,17.20
2018,07,05,01,25,17.20
2018,07,05,01,26,17.20
2018,07,05,01,27,17.20
2018,07,05,01,28,17.10
2018,07,05,01,29,17.10
2018,07,05,01,30,17.10
2018,07,05,01,31,17.10
2018,07,05,01,32,17.10
2018,07,05,01,33,17.10
2018,07,05,01,34,17.10
2018,07,05,01,35,17.10
2018,07,05,01,36,17.10
2018,07,05,01,37,17.10
2018,07,05,01,38,17.10
2018,07,05,01,39,17.10
2018,07,05,01,40,17.10
2018,07,05,01,41,17.10
2018,07,05,01,42,17.10
2018,07,05,01,43,17.10
2018,07,05,01,44,17.00
2018,07,05,01,45,17.00
2018,07,05,01,46,17.00
2018,07,05,01,47,16.90
2018,07,05,01,48,16.90
2018,07,05,01,49,16.90
2018,07,05,01,50,16.90
2018,07,05,01,51,16.90
2018,07,05,01,52,16.90
2018,07,05,01,53,16.90
2018,07,05,01,54,16.90
2018,07,05,01,55,16.90
2018,07,05,01,56,16.90
2018,07,05,01,57,16.90
2018,07,05,01,58,16.90
2018,07,05,01,59,16.90
2018,07,05,02,00,16.90
2018,07,05,02,01,16.90
2018,07,05,02,02,16.90
2018,07,05,02,03,16.90
2018,07,05,02,04,16.90
2018,07,05,02,05,16.90
2018,07,05,02,06,16.90
2018,07,05,02,07,16.90
2018,07,05,02,08,17.00
2018,07,05,02,09,17.00
2018,07,05,02,10,17.00
2018,07,05,02,11,17.00
2018,07,05,02,12,17.00
2018,07,05,02,13,16.90
2018,07,05,02,14,17.00
2018,07,05,02,15,16.90
2018,07,05,02,16,16.90
2018,07,05,02,17,16.90
2018,07,05,02,18,16.90
2018,07,05,02,19,16.90
2018,07,05,02,20,16.90
2018,07,05,02,21,16.90
2018,07,05,02,22,16.90
2018,07,05,02,23,16.90
2018,07,05,02,24,16.90
2018,07,05,02,25,16.90
2018,07,05,02,26,16.90
2018,07,05,02,27,16.90
2018,07,05,02,28,16.90
2018,07,05,02,29,16.90
2018,07,05,02,30,16.90
2018,07,05,02,31,16.90
2018,07,05,02,32,16.90
2018,07,05,02,33,16.90
2018,07,05,02,34,16.90
2018,07,05,02,35,16.90
2018,07,05,02,36,16.90
2018,07,05,02,37,16.90
2018,07,05,02,38,16.90
2018,07,05,02,39,16.80
2018,07,05,02,40,16.80
2018,07,05,02,41,16.80
2018,07,05,02,42,16.80
2018,07,05,02,43,16.80
2018,07,05,02,44,16.80
2018,07,05,02,45,16.80
2018,07,05,02,46,16.80
2018,07,05,02,47,16.80
2018,07,05,02,48,16.70
2018,07,05,02,49,16.70
2018,07,05,02,50,16.70
2018,07,05,02,51,16.70
2018,07,05,02,52,16.60
2018,07,05,02,53,16.60
2018,07,05,02,54,16.60
2018,07,05,02,55,16.50
2018,07,05,02,56,16.50
2018,07,05,02,57,16.40
2018,07,05,02,58,16.40
2018,07,05,02,59,16.40
2018,07,05,03,00,16.40
2018,07,05,03,01,16.40
2018,07,05,03,02,16.30
2018,07,05,03,03,16.30
2018,07,05,03,04,16.30
2018,07,05,03,05,16.30
2018,07,05,03,06,16.30
2018,07,05,03,07,16.30
2018,07,05,03,08,16.20
2018,07,05,03,09,16.20
2018,07,05,03,10,16.20
2018,07,05,03,11,16.20
2018,07,05,03,12,16.20
2018,07,05,03,13,16.20
2018,07,05,03,14,16.10
2018,07,05,03,15,16.10
2018,07,05,03,16,16.10
2018,07,05,03,17,16.10
2018,07,05,03,18,16.10
2018,07,05,03,19,16.10
2018,07,05,03,20,16.10
2018,07,05,03,21,16.10
2018,07,05,03,22,16.10
2018,07,05,03,23,16.10
2018,07,05,03,24,16.10
2018,07,05,03,25,16.10
2018,07,05,03,26,16.10
2018,07,05,03,27,16.10
2018,07,05,03,28,16.20
2018,07,05,03,29,16.20
2018,07,05,03,30,16.20
2018,07,05,03,31,16.20
2018,07,05,03,32,16.20
2018,07,05,03,33,16.20
2018,07,05,03,34,16.20
2018,07,05,03,35,16.20
2018,07,05,03,36,16.20
2018,07,05,03,37,16.20
2018,07,05,03,38,16.20
2018,07,05,03,39,16.20
2018,07,05,03,40,16.30
2018,07,05,03,41,16.30
2018,07,05,03,42,16.30
2018,07,05,03,43,16.30
2018,07,05,03,44,16.30
2018,07,05,03,45,16.30
2018,07,05,03,46,16.30
2018,07,05,03,47,16.30
2018,07,05,03,48,16.30
2018,07,05,03,49,16.30
2018,07,05,03,50,16.30
2018,07,05,03,51,16.30
2018,07,05,03,52,16.30
2018,07,05,03,53,16.30
2018,07,05,03,54,16.30
2018,07,05,03,55,16.30
2018,07,05,03,56,16.30
2018,07,05,03,57,16.30
2018,07,05,03,58,16.30
2018,07,05,03,59,16.30
2018,07,05,04,00,16.30
2018,07,05,04,01,16.30
2018,07,05,04,02,16.30
2018,07,05,04,03,16.30
2018,07,05,04,04,16.30
2018,07,05,04,05,16.30
2018,07,05,04,06,16.30
2018,07,05,04,07,16.30
2018,07,05,04,08,16.30
2018,07,05,04,09,16.30
2018,07,05,04,10,16.30
2018,07,05,04,11,16.30
2018,07,05,04,12,16.30
2018,07,05,04,13,16.20
2018,07,05,04,14,16.20
2018,07,05,04,15,16.20
2018,07,05,04,16,16.20
2018,07,05,04,17,16.20
2018,07,05,04,18,16.20
2018,07,05,04,19,16.20
2018,07,05,04,20,16.20
2018,07,05,04,21,16.20
2018,07,05,04,22,16.20
2018,07,05,04,23,16.20
2018,07,05,04,24,16.20
2018,07,05,04,25,16.20
2018,07,05,04,26,16.20
2018,07,05,04,27,16.20
2018,07,05,04,28,16.30
2018,07,05,04,29,16.30
2018,07,05,04,30,16.30
2018,07,05,04,31,16.30
2018,07,05,04,32,16.30
2018,07,05,04,33,16.30
2018,07,05,04,34,16.30
2018,07,05,04,35,16.30
2018,07,05,04,36,16.30
2018,07,05,04,37,16.30
2018,07,05,04,38,16.30
2018,07,05,04,39,16.30
2018,07,05,04,40,16.30
2018,07,05,04,41,16.30
2018,07,05,04,42,16.30
2018,07,05,04,43,16.30
2018,07,05,04,44,16.30
2018,07,05,04,45,16.20
2018,07,05,04,46,16.20
2018,07,05,04,47,16.20
2018,07,05,04,48,16.20
2018,07,05,04,49,16.20
2018,07,05,04,50,16.20
2018,07,05,04,51,16.20
2018,07,05,04,52,16.20
2018,07,05,04,53,16.20
2018,07,05,04,54,16.20
2018,07,05,04,55,16.20
2018,07,05,04,56,16.30
2018,07,05,04,57,16.30
2018,07,05,04,58,16.30
2018,07,05,04,59,16.30
2018,07,05,05,00,16.30
2018,07,05,05,01,16.40
2018,07,05,05,02,16.40
2018,07,05,05,03,16.40
2018,07,05,05,04,16.40
2018,07,05,05,05,16.40
2018,07,05,05,06,16.40
2018,07,05,05,07,16.40
2018,07,05,05,08,16.40
2018,07,05,05,09,16.40
2018,07,05,05,10,16.40
2018,07,05,05,11,16.40
2018,07,05,05,12,16.40
2018,07,05,05,13,16.40
2018,07,05,05,14,16.40
2018,07,05,05,15,16.40
2018,07,05,05,16,16.40
2018,07,05,05,17,16.40
2018,07,05,05,18,16.40
2018,07,05,05,19,16.40
2018,07,05,05,20,16.40
2018,07,05,05,21,16.40
2018,07,05,05,22,16.40
2018,07,05,05,23,16.40
2018,07,05,05,24,16.40
2018,07,05,05,25,16.50
2018,07,05,05,26,16.50
2018,07,05,05,27,16.50
2018,07,05,05,28,16.40
2018,07,05,05,29,16.40
2018,07,05,05,30,16.40
2018,07,05,05,31,16.40
2018,07,05,05,32,16.40
2018,07,05,05,33,16.40
2018,07,05,05,34,16.40
2018,07,05,05,35,16.40
2018,07,05,05,36,16.40
2018,07,05,05,37,16.40
2018,07,05,05,38,16.40
2018,07,05,05,39,16.30
2018,07,05,05,40,16.30
2018,07,05,05,41,16.30
2018,07,05,05,42,16.30
2018,07,05,05,43,16.30
2018,07,05,05,44,16.20
2018,07,05,05,45,16.20
2018,07,05,05,46,16.20
2018,07,05,05,47,16.10
2018,07,05,05,48,16.00
2018,07,05,05,49,16.00
2018,07,05,05,50,15.90
2018,07,05,05,51,15.90
2018,07,05,05,52,15.80
2018,07,05,05,53,15.80
2018,07,05,05,54,15.80
2018,07,05,05,55,15.80
2018,07,05,05,56,15.80
2018,07,05,05,57,15.80
2018,07,05,05,58,15.80
2018,07,05,05,59,15.70
2018,07,05,06,00,15.70
2018,07,05,06,01,15.70
2018,07,05,06,02,15.70
2018,07,05,06,03,15.70
2018,07,05,06,04,15.70
2018,07,05,06,05,15.70
2018,07,05,06,06,15.70
2018,07,05,06,07,15.70
2018,07,05,06,08,15.70
2018,07,05,06,09,15.70
2018,07,05,06,10,15.70
2018,07,05,06,11,15.70
2018,07,05,06,12,15.70
2018,07,05,06,13,15.70
2018,07,05,06,14,15.80
2018,07,05,06,15,15.80
2018,07,05,06,16,15.80
2018,07,05,06,17,15.80
2018,07,05,06,18,15.80
2018,07,05,06,19,15.80
2018,07,05,06,20,15.80
2018,07,05,06,21,15.80
2018,07,05,06,22,15.80
2018,07,05,06,23,15.80
2018,07,05,06,24,15.80
2018,07,05,06,25,15.80
2018,07,05,06,26,15.90
2018,07,05,06,27,15.90
2018,07,05,06,28,15.90
2018,07,05,06,29,15.90
2018,07,05,06,30,15.90
2018,07,05,06,31,15.90
2018,07,05,06,32,15.90
2018,07,05,06,33,15.90
2018,07,05,06,34,15.90
2018,07,05,06,35,15.90
2018,07,05,06,36,15.90
2018,07,05,06,37,16.00
2018,07,05,06,38,16.00
2018,07,05,06,39,16.00
2018,07,05,06,40,16.00
2018,07,05,06,41,16.10
2018,07,05,06,42,16.10
2018,07,05,06,43,16.10
2018,07,05,06,44,16.20
2018,07,05,06,45,16.20
2018,07,05,06,46,16.20
2018,07,05,06,47,16.30
2018,07,05,06,48,16.30
2018,07,05,06,49,16.30
2018,07,05,06,50,16.30
2018,07,05,06,51,16.30
2018,07,05,06,52,16.30
2018,07,05,06,53,16.30
2018,07,05,06,54,16.20
2018,07,05,06,55,16.20
2018,07,05,06,56,16.10
2018,07,05,06,57,16.10
2018,07,05,06,58,16.10
2018,07,05,06,59,16.00
2018,07,05,07,00,16.00
2018,07,05,07,01,15.90
2018,07,05,07,02,15.90
2018,07,05,07,03,15.90
2018,07,05,07,04,15.90
2018,07,05,07,05,15.90
2018,07,05,07,06,15.90
2018,07,05,07,07,15.90
2018,07,05,07,08,15.90
2018,07,05,07,09,15.90
2018,07,05,07,10,15.90
2018,07,05,07,11,15.90
2018,07,05,07,12,15.90
2018,07,05,07,13,15.90
2018,07,05,07,14,15.90
2018,07,05,07,15,15.90
2018,07,05,07,16,15.90
2018,07,05,07,17,15.90
2018,07,05,07,18,16.00
2018,07,05,07,19,16.00
2018,07,05,07,20,16.00
2018,07,05,07,21,16.00
2018,07,05,07,22,16.10
2018,07,05,07,23,16.10
2018,07,05,07,24,16.10
2018,07,05,07,25,16.10
2018,07,05,07,26,16.10
2018,07,05,07,27,16.20
2018,07,05,07,28,16.20
2018,07,05,07,29,16.20
2018,07,05,07,30,16.20
2018,07,05,07,31,16.20
2018,07,05,07,32,16.20
2018,07,05,07,33,16.30
2018,07,05,07,34,16.30
2018,07,05,07,35,16.30
2018,07,05,07,36,16.30
2018,07,05,07,37,16.30
2018,07,05,07,38,16.40
2018,07,05,07,39,16.40
2018,07,05,07,40,16.40
2018,07,05,07,41,16.40
2018,07,05,07,42,16.50
2018,07,05,07,43,16.50
2018,07,05,07,44,16.60
2018,07,05,07,45,16.60
2018,07,05,07,46,16.60
2018,07,05,07,47,16.70
2018,07,05,07,48,16.70
2018,07,05,07,49,16.80
2018,07,05,07,50,16.80
2018,07,05,07,51,16.70
2018,07,05,07,52,16.70
2018,07,05,07,53,16.70
2018,07,05,07,54,16.70
2018,07,05,07,55,16.70
2018,07,05,07,56,16.60
2018,07,05,07,57,16.60
2018,07,05,07,58,16.60
2018,07,05,07,59,16.60
2018,07,05,08,00,16.60
2018,07,05,08,01,16.60
2018,07,05,08,02,16.60
2018,07,05,08,03,16.60
2018,07,05,08,04,16.60
2018,07,05,08,05,16.60
2018,07,05,08,06,16.60
2018,07,05,08,07,16.60
2018,07,05,08,08,16.60
2018,07,05,08,09,16.70
2018,07,05,08,10,16.70
2018,07,05,08,11,16.70
2018,07,05,08,12,16.70
2018,07,05,08,13,16.80
2018,07,05,08,14,16.80
2018,07,05,08,15,16.80
2018,07,05,08,16,16.90
2018,07,05,08,17,16.90
2018,07,05,08,18,17.00
2018,07,05,08,19,17.00
2018,07,05,08,20,17.10
2018,07,05,08,21,17.10
2018,07,05,08,22,17.20
2018,07,05,08,23,17.20
2018,07,05,08,24,17.20
2018,07,05,08,25,17.30
2018,07,05,08,26,17.30
2018,07,05,08,27,17.30
2018,07,05,08,28,17.30
2018,07,05,08,29,17.40
2018,07,05,08,30,17.50
2018,07,05,08,31,17.50
2018,07,05,08,32,17.60
2018,07,05,08,33,17.80
2018,07,05,08,34,17.80
2018,07,05,08,35,17.90
2018,07,05,08,36,18.00
2018,07,05,08,37,18.00
2018,07,05,08,38,18.10
2018,07,05,08,39,18.10
2018,07,05,08,40,18.10
2018,07,05,08,41,18.20
2018,07,05,08,42,18.20
2018,07,05,08,43,18.20
2018,07,05,08,44,18.20
2018,07,05,08,45,18.30
2018,07,05,08,46,18.30
2018,07,05,08,47,18.40
2018,07,05,08,48,18.40
2018,07,05,08,49,18.50
2018,07,05,08,50,18.60
2018,07,05,08,51,18.60
2018,07,05,08,52,18.70
2018,07,05,08,53,18.70
2018,07,05,08,54,18.80
2018,07,05,08,55,18.80
2018,07,05,08,56,18.90
2018,07,05,08,57,18.90
2018,07,05,08,58,19.00
2018,07,05,08,59,19.10
2018,07,05,09,00,19.20
2018,07,05,09,01,19.30
2018,07,05,09,02,19.40
2018,07,05,09,03,19.50
2018,07,05,09,04,19.60
2018,07,05,09,05,19.70
2018,07,05,09,06,19.80
2018,07,05,09,07,19.90
2018,07,05,09,08,20.00
2018,07,05,09,09,20.10
2018,07,05,09,10,20.20
2018,07,05,09,11,20.30
2018,07,05,09,12,20.40
2018,07,05,09,13,20.50
2018,07,05,09,14,20.60
2018,07,05,09,15,20.80
2018,07,05,09,16,20.90
2018,07,05,09,17,21.00
2018,07,05,09,18,21.10
2018,07,05,09,19,21.30
2018,07,05,09,20,21.30
2018,07,05,09,21,21.40
2018,07,05,09,22,21.50
2018,07,05,09,23,21.60
2018,07,05,09,24,21.70
2018,07,05,09,25,21.70
2018,07,05,09,26,21.70
2018,07,05,09,27,21.70
2018,07,05,09,28,21.80
2018,07,05,09,29,21.80
2018,07,05,09,30,21.90
2018,07,05,09,31,21.90
2018,07,05,09,32,22.00
2018,07,05,09,33,22.10
2018,07,05,09,34,22.10
2018,07,05,09,35,22.20
2018,07,05,09,36,22.30
2018,07,05,09,37,22.40
2018,07,05,09,38,22.40
2018,07,05,09,39,22.50
2018,07,05,09,40,22.50
2018,07,05,09,41,22.50
2018,07,05,09,42,22.50
2018,07,05,09,43,22.50
2018,07,05,09,44,22.50
2018,07,05,09,45,22.50
2018,07,05,09,46,22.50
2018,07,05,09,47,22.50
2018,07,05,09,48,22.50
2018,07,05,09,49,22.50
2018,07,05,09,50,22.40
2018,07,05,09,51,22.10
2018,07,05,09,52,21.70
2018,07,05,09,53,21.30
2018,07,05,09,54,21.00
2018,07,05,09,55,20.60
2018,07,05,09,56,20.30
2018,07,05,09,57,20.00
2018,07,05,09,58,19.80
2018,07,05,09,59,19.60
2018,07,05,10,00,19.50
2018,07,05,10,01,19.40
2018,07,05,10,02,19.20
2018,07,05,10,03,19.00
2018,07,05,10,04,18.80
2018,07,05,10,05,18.60
2018,07,05,10,06,18.40
2018,07,05,10,07,18.30
2018,07,05,10,08,18.20
2018,07,05,10,09,18.10
2018,07,05,10,10,18.00
2018,07,05,10,11,18.00
2018,07,05,10,12,17.90
2018,07,05,10,13,17.90
2018,07,05,10,14,17.90
2018,07,05,10,15,17.90
2018,07,05,10,16,17.90
2018,07,05,10,17,17.90
2018,07,05,10,18,18.00
2018,07,05,10,19,18.00
2018,07,05,10,20,18.10
2018,07,05,10,21,18.10
2018,07,05,10,22,18.20
2018,07,05,10,23,18.30
2018,07,05,10,24,18.30
2018,07,05,10,25,18.40
2018,07,05,10,26,18.50
2018,07,05,10,27,18.60
2018,07,05,10,28,18.70
2018,07,05,10,29,18.80
2018,07,05,10,30,18.90
2018,07,05,10,31,19.00
2018,07,05,10,32,19.10
2018,07,05,10,33,19.20
2018,07,05,10,34,19.30
2018,07,05,10,35,19.30
2018,07,05,10,36,19.40
2018,07,05,10,37,19.50
2018,07,05,10,38,19.60
2018,07,05,10,39,19.60
2018,07,05,10,40,19.60
2018,07,05,10,41,19.60
2018,07,05,10,42,19.60
2018,07,05,10,43,19.60
2018,07,05,10,44,19.60
2018,07,05,10,45,19.60
2018,07,05,10,46,19.60
2018,07,05,10,47,19.60
2018,07,05,10,48,19.60
2018,07,05,10,49,19.60
2018,07,05,10,50,19.70
2018,07,05,10,51,19.70
2018,07,05,10,52,19.70
2018,07,05,10,53,19.70
2018,07,05,10,54,19.70
2018,07,05,10,55,19.70
2018,07,05,10,56,19.70
2018,07,05,10,57,19.70
2018,07,05,10,58,19.70
2018,07,05,10,59,19.80
2018,07,05,11,00,19.70
2018,07,05,11,01,19.70
2018,07,05,11,02,19.70
2018,07,05,11,03,19.70
2018,07,05,11,04,19.70
2018,07,05,11,05,19.70
2018,07,05,11,06,19.70
2018,07,05,11,07,19.70
2018,07,05,11,08,19.80
2018,07,05,11,09,19.80
2018,07,05,11,10,19.90
2018,07,05,11,11,20.00
2018,07,05,11,12,20.00
2018,07,05,11,13,20.10
2018,07,05,11,14,20.20
2018,07,05,11,15,20.20
2018,07,05,11,16,20.20
2018,07,05,11,17,20.20
2018,07,05,11,18,20.20
2018,07,05,11,19,20.20
2018,07,05,11,20,20.10
2018,07,05,11,21,20.10
2018,07,05,11,22,20.00
2018,07,05,11,23,20.00
2018,07,05,11,24,20.00
2018,07,05,11,25,19.90
2018,07,05,11,26,19.90
2018,07,05,11,27,19.90
2018,07,05,11,28,19.90
2018,07,05,11,29,19.90
2018,07,05,11,30,20.00
2018,07,05,11,31,20.00
2018,07,05,11,32,20.00
2018,07,05,11,33,20.00
2018,07,05,11,34,20.10
2018,07,05,11,35,20.10
2018,07,05,11,36,20.10
2018,07,05,11,37,20.10
2018,07,05,11,38,20.10
2018,07,05,11,39,20.10
2018,07,05,11,40,20.10
2018,07,05,11,41,20.10
2018,07,05,11,42,20.10
2018,07,05,11,43,20.10
2018,07,05,11,44,20.20
2018,07,05,11,45,20.20
2018,07,05,11,46,20.20
2018,07,05,11,47,20.20
2018,07,05,11,48,20.20
2018,07,05,11,49,20.30
2018,07,05,11,50,20.30
2018,07,05,11,51,20.30
2018,07,05,11,52,20.30
2018,07,05,11,53,20.40
2018,07,05,11,54,20.40
2018,07,05,11,55,20.40
2018,07,05,11,56,20.40
2018,07,05,11,57,20.40
2018,07,05,11,58,20.50
2018,07,05,11,59,20.50
2018,07,05,12,00,20.50
2018,07,05,12,01,20.50
2018,07,05,12,02,20.50
2018,07,05,12,03,20.40
2018,07,05,12,04,20.40
2018,07,05,12,05,20.40
2018,07,05,12,06,20.40
2018,07,05,12,07,20.40
2018,07,05,12,08,20.50
2018,07,05,12,09,20.50
2018,07,05,12,10,20.50
2018,07,05,12,11,20.50
2018,07,05,12,12,20.60
2018,07,05,12,13,20.60
2018,07,05,12,14,20.60
2018,07,05,12,15,20.60
2018,07,05,12,16,20.60
2018,07,05,12,17,20.60
2018,07,05,12,18,20.60
2018,07,05,12,19,20.60
2018,07,05,12,20,20.60
2018,07,05,12,21,20.50
2018,07,05,12,22,20.50
2018,07,05,12,23,20.50
2018,07,05,12,24,20.40
2018,07,05,12,25,20.40
2018,07,05,12,26,20.40
2018,07,05,12,27,20.40
2018,07,05,12,28,20.40
2018,07,05,12,29,20.40
2018,07,05,12,30,20.40
2018,07,05,12,31,20.40
2018,07,05,12,32,20.40
2018,07,05,12,33,20.40
2018,07,05,12,34,20.40
2018,07,05,12,35,20.50
2018,07,05,12,36,20.50
2018,07,05,12,37,20.50
2018,07,05,12,38,20.50
2018,07,05,12,39,20.50
2018,07,05,12,40,20.50
2018,07,05,12,41,20.40
2018,07,05,12,42,20.40
2018,07,05,12,43,20.40
2018,07,05,12,44,20.40
2018,07,05,12,45,20.40
2018,07,05,12,46,20.40
2018,07,05,12,47,20.40
2018,07,05,12,48,20.50
2018,07,05,12,49,20.50
2018,07,05,12,50,20.60
2018,07,05,12,51,20.60
2018,07,05,12,52,20.70
2018,07,05,12,53,20.70
2018,07,05,12,54,20.70
2018,07,05,12,55,20.80
2018,07,05,12,56,20.80
2018,07,05,12,57,20.80
2018,07,05,12,58,20.80
2018,07,05,12,59,20.80
2018,07,05,13,00,20.80
2018,07,05,13,01,20.90
2018,07,05,13,02,20.90
2018,07,05,13,03,20.90
2018,07,05,13,04,20.90
2018,07,05,13,05,20.90
2018,07,05,13,06,20.90
2018,07,05,13,07,20.90
2018,07,05,13,08,20.90
2018,07,05,13,09,21.00
2018,07,05,13,10,21.00
2018,07,05,13,11,21.10
2018,07,05,13,12,21.10
2018,07,05,13,13,21.10
2018,07,05,13,14,21.20
2018,07,05,13,15,21.20
2018,07,05,13,16,21.20
2018,07,05,13,17,21.20
2018,07,05,13,18,21.20
2018,07,05,13,19,21.20
2018,07,05,13,20,21.20
2018,07,05,13,21,21.20
2018,07,05,13,22,21.20
2018,07,05,13,23,21.20
2018,07,05,13,24,21.20
2018,07,05,13,25,21.20
2018,07,05,13,26,21.10
2018,07,05,13,27,21.10
2018,07,05,13,28,21.10
2018,07,05,13,29,21.10
2018,07,05,13,30,21.10
2018,07,05,13,31,21.10
2018,07,05,13,32,21.10
2018,07,05,13,33,21.10
2018,07,05,13,34,21.00
2018,07,05,13,35,21.00
2018,07,05,13,36,21.00
2018,07,05,13,37,21.00
2018,07,05,13,38,21.10
2018,07,05,13,39,21.10
2018,07,05,13,40,21.10
2018,07,05,13,41,21.10
2018,07,05,13,42,21.10
2018,07,05,13,43,21.10
2018,07,05,13,44,21.10
2018,07,05,13,45,21.10
2018,07,05,13,46,21.10
2018,07,05,13,47,21.10
2018,07,05,13,48,21.10
2018,07,05,13,49,21.10
2018,07,05,13,50,21.10
2018,07,05,13,51,21.10
2018,07,05,13,52,21.10
2018,07,05,13,53,21.10
2018,07,05,13,54,21.10
2018,07,05,13,55,21.10
2018,07,05,13,56,21.20
2018,07,05,13,57,21.20
2018,07,05,13,58,21.20
2018,07,05,13,59,21.30
2018,07,05,14,00,21.30
2018,07,05,14,01,21.30
2018,07,05,14,02,21.30
2018,07,05,14,03,21.30
2018,07,05,14,04,21.30
2018,07,05,14,05,21.30
2018,07,05,14,06,21.30
2018,07,05,14,07,21.20
2018,07,05,14,08,21.20
2018,07,05,14,09,21.10
2018,07,05,14,10,20.90
2018,07,05,14,11,20.60
2018,07,05,14,12,20.30
2018,07,05,14,13,20.10
2018,07,05,14,14,19.90
2018,07,05,14,15,19.80
2018,07,05,14,16,19.70
2018,07,05,14,17,19.60
2018,07,05,14,18,19.60
2018,07,05,14,19,19.60
2018,07,05,14,20,19.60
2018,07,05,14,21,19.70
2018,07,05,14,22,19.70
2018,07,05,14,23,19.80
2018,07,05,14,24,19.90
2018,07,05,14,25,19.90
2018,07,05,14,26,20.00
2018,07,05,14,27,20.10
2018,07,05,14,28,20.10
2018,07,05,14,29,20.10
2018,07,05,14,30,20.20
2018,07,05,14,31,20.20
2018,07,05,14,32,20.30
2018,07,05,14,33,20.30
2018,07,05,14,34,20.30
2018,07,05,14,35,20.30
2018,07,05,14,36,20.30
2018,07,05,14,37,20.40
2018,07,05,14,38,20.40
2018,07,05,14,39,20.50
2018,07,05,14,40,20.60
2018,07,05,14,41,20.60
2018,07,05,14,42,20.70
2018,07,05,14,43,20.80
2018,07,05,14,44,20.90
2018,07,05,14,45,20.90
2018,07,05,14,46,21.00
2018,07,05,14,47,21.10
2018,07,05,14,48,21.10
2018,07,05,14,49,21.10
2018,07,05,14,50,21.10
2018,07,05,14,51,21.10
2018,07,05,14,52,21.10
2018,07,05,14,53,21.00
2018,07,05,14,54,21.00
2018,07,05,14,55,21.00
2018,07,05,14,56,21.00
2018,07,05,14,57,20.90
2018,07,05,14,58,20.90
2018,07,05,14,59,20.90
2018,07,05,15,00,20.80
2018,07,05,15,01,20.80
2018,07,05,15,02,20.70
2018,07,05,15,03,20.70
2018,07,05,15,04,20.70
2018,07,05,15,05,20.80
2018,07,05,15,06,20.80
2018,07,05,15,07,20.80
2018,07,05,15,08,20.90
2018,07,05,15,09,21.00
2018,07,05,15,10,21.20
2018,07,05,15,11,21.40
2018,07,05,15,12,21.70
2018,07,05,15,13,21.80
2018,07,05,15,14,22.10
2018,07,05,15,15,22.50
2018,07,05,15,16,22.70
2018,07,05,15,17,22.90
2018,07,05,15,18,23.10
2018,07,05,15,19,23.30
2018,07,05,15,20,23.40
2018,07,05,15,21,23.50
2018,07,05,15,22,23.60
2018,07,05,15,23,23.70
2018,07,05,15,24,23.80
2018,07,05,15,25,23.80
2018,07,05,15,26,23.80
2018,07,05,15,27,23.90
2018,07,05,15,28,23.80
2018,07,05,15,29,23.80
2018,07,05,15,30,23.80
2018,07,05,15,31,23.70
2018,07,05,15,32,23.50
2018,07,05,15,33,23.40
2018,07,05,15,34,23.30
2018,07,05,15,35,23.30
2018,07,05,15,36,23.20
2018,07,05,15,37,23.10
2018,07,05,15,38,23.10
2018,07,05,15,39,23.00
2018,07,05,15,40,23.00
2018,07,05,15,41,23.00
2018,07,05,15,42,23.10
2018,07,05,15,43,23.10
2018,07,05,15,44,23.20
2018,07,05,15,45,23.30
2018,07,05,15,46,23.30
2018,07,05,15,47,23.20
2018,07,05,15,48,23.20
2018,07,05,15,49,23.20
2018,07,05,15,50,23.20
2018,07,05,15,51,23.20
2018,07,05,15,52,23.10
2018,07,05,15,53,23.10
2018,07,05,15,54,23.20
2018,07,05,15,55,23.30
2018,07,05,15,56,23.50
2018,07,05,15,57,23.70
2018,07,05,15,58,23.90
2018,07,05,15,59,24.10
2018,07,05,16,00,24.20
2018,07,05,16,01,24.30
2018,07,05,16,02,24.30
2018,07,05,16,03,24.40
2018,07,05,16,04,24.50
2018,07,05,16,05,24.50
2018,07,05,16,06,24.60
2018,07,05,16,07,24.60
2018,07,05,16,08,24.70
2018,07,05,16,09,24.70
2018,07,05,16,10,24.80
2018,07,05,16,11,24.80
2018,07,05,16,12,24.90
2018,07,05,16,13,24.90
2018,07,05,16,14,25.00
2018,07,05,16,15,25.00
2018,07,05,16,16,25.00
2018,07,05,16,17,25.10
2018,07,05,16,18,25.10
2018,07,05,16,19,25.10
2018,07,05,16,20,25.10
2018,07,05,16,21,25.10
2018,07,05,16,22,25.00
2018,07,05,16,23,25.00
2018,07,05,16,24,25.00
2018,07,05,16,25,25.10
2018,07,05,16,26,25.00
2018,07,05,16,27,25.00
2018,07,05,16,28,25.00
2018,07,05,16,29,25.10
2018,07,05,16,30,25.10
2018,07,05,16,31,25.10
2018,07,05,16,32,25.10
2018,07,05,16,33,25.10
2018,07,05,16,34,25.10
2018,07,05,16,35,25.10
2018,07,05,16,36,25.10
2018,07,05,16,37,25.10
2018,07,05,16,38,25.10
2018,07,05,16,39,25.10
2018,07,05,16,40,25.10
2018,07,05,16,41,25.20
2018,07,05,16,42,25.20
2018,07,05,16,43,25.20
2018,07,05,16,44,25.20
2018,07,05,16,45,25.20
2018,07,05,16,46,25.20
2018,07,05,16,47,25.20
2018,07,05,16,48,25.20
2018,07,05,16,49,25.20
2018,07,05,16,50,25.20
2018,07,05,16,51,25.20
2018,07,05,16,52,25.20
2018,07,05,16,53,25.20
2018,07,05,16,54,25.20
2018,07,05,16,55,25.20
2018,07,05,16,56,25.20
2018,07,05,16,57,25.20
2018,07,05,16,58,25.20
2018,07,05,16,59,25.20
2018,07,05,17,00,25.10
2018,07,05,17,01,25.10
2018,07,05,17,02,25.10
2018,07,05,17,03,25.10
2018,07,05,17,04,25.00
2018,07,05,17,05,25.00
2018,07,05,17,06,24.90
2018,07,05,17,07,24.90
2018,07,05,17,08,24.90
2018,07,05,17,09,24.90
2018,07,05,17,10,24.80
2018,07,05,17,11,24.80
2018,07,05,17,12,24.80
2018,07,05,17,13,24.80
2018,07,05,17,14,24.80
2018,07,05,17,15,24.80
2018,07,05,17,16,24.80
2018,07,05,17,17,24.70
2018,07,05,17,18,24.70
2018,07,05,17,19,24.70